Location: Arcones
(41.1182°N, 3.7238°W)
Time: 00:01:49
(UTC+00:00)

Cosmos 2369 - Pass Details

Date: 11 December 2025
Orbit: 839 x 854 km, 71.0° (Epoch: 14 January)

Event Time Altitude Azimuth Distance (km) Brightness Sun altitude
Rises 18:20:30 0° 187° (S) 3,403 7.2 -17.1°
Reaches altitude 10° 18:23:00 10° 182° (S) 2,473 6.3 -17.6°
Maximum altitude 18:28:29 51° 108° (ESE) 1,063 3.9 -18.6°
Enters shadow 18:31:00 30° 49° (NE) 1,484 4.5 -19.0°
